Weather History for Scappoose, OR

Change the Weather History Date:

Saturday, September 28, 2013

  Actual Average Record
Temperature  
Mean Temperature 57 °F -  
Max Temperature 62 °F - 86 °F (2006)
Min Temperature 52 °F - 37 °F (1999)
Degree Days  
Heating Degree Days 8    
Month to date heating degree days 105  
Since 1 July heating degree days 129  
Cooling Degree Days 0    
Month to date cooling degree days 72  
Year to date cooling degree days 396  
Growing Degree Days 7 (Base 50)    
Moisture  
Dew Point 55 °F    
Average Humidity 88    
Maximum Humidity 96    
Minimum Humidity 80    
Precipitation  
Precipitation 1.66 in - 1.66 in (2013)
Month to date precipitation 5.26  
Year to date precipitation 19.80  
Sea Level Pressure  
Sea Level Pressure 29.65 in    
Wind  
Wind Speed 8 mph (South)    
Max Wind Speed 18 mph    
Max Gust Speed 33 mph    
Visibility 6 miles    
Events Rain    
T = Trace of Precipitation, MM = Missing Value Source: NWS Daily Summary

Daily Weather History Graph

Daily Weather History Graph

Search for Another Location

Airport:

Trip Planner

Search our weather history database for the weather conditions in past years. The results will help you decide how hot, cold, wet, or windy it might be!

Date:

Astronomy

Sep. 28, 2013 Rise Set
Actual Time 7:06 AM PDT 6:56 PM PDT
Civil Twilight 6:36 AM PDT 7:26 PM PDT
Nautical Twilight 6:02 AM PDT 8:00 PM PDT
Astronomical Twilight 5:26 AM PDT 8:36 PM PDT
Moon 12:43 AM PDT 3:33 PM PDT
Length of Visible Light 12h 49m
Length of Day
11h 50m
Waning Crescent, 35% of the Moon is Illuminated
Sep 28
Waning Crescent
Oct 4
New
Oct 11
First Quarter
Oct 18
Full
Oct 26
Last Quarter

Hourly Weather History & Observations

Time (PDT) Temp. Dew Point Humidity Pressure Visibility Wind Dir Wind Speed Gust Speed Precip Events Conditions
12:53 AM 55.0 °F 53.1 °F 93% 29.88 in 10.0 mi Variable 4.6 mph - 0.01 in Rain Light Rain
1:53 AM 55.9 °F 53.1 °F 90% 29.86 in 10.0 mi South 6.9 mph - 0.01 in   Overcast
2:41 AM 55.4 °F 53.6 °F 94% 29.83 in 7.0 mi SSE 8.1 mph - 0.07 in Rain Light Rain
2:53 AM 55.9 °F 54.0 °F 93% 29.82 in 10.0 mi SE 9.2 mph - 0.08 in Rain Light Rain
3:12 AM 55.4 °F 53.6 °F 94% 29.81 in 10.0 mi South 8.1 mph - 0.00 in   Mostly Cloudy
3:24 AM 57.2 °F 53.6 °F 88% 29.80 in 10.0 mi SSE 8.1 mph - 0.00 in   Overcast
3:44 AM 57.2 °F 53.6 °F 88% 29.79 in 7.0 mi South 4.6 mph - 0.00 in Rain Light Rain
3:53 AM 57.0 °F 54.0 °F 89% 29.79 in 6.0 mi Calm Calm - 0.00 in Rain Light Rain
4:53 AM 57.9 °F 55.0 °F 90% 29.76 in 7.0 mi SSE 6.9 mph - 0.12 in Rain Light Rain
5:06 AM 57.2 °F 55.4 °F 94% 29.75 in 10.0 mi SSE 5.8 mph - 0.01 in Rain Light Rain
5:53 AM 57.9 °F 55.0 °F 90% 29.73 in 4.0 mi SSE 5.8 mph - 0.10 in Rain Rain
6:31 AM 57.2 °F 55.4 °F 94% 29.71 in 3.0 mi South 8.1 mph - 0.10 in Rain Rain
6:53 AM 57.9 °F 55.9 °F 93% 29.71 in 4.0 mi Variable 6.9 mph - 0.12 in Rain Light Rain
7:17 AM 59.0 °F 55.4 °F 88% 29.70 in 6.0 mi South 6.9 mph - 0.01 in Rain Light Rain
7:53 AM 59.0 °F 55.9 °F 90% 29.69 in 10.0 mi SSE 11.5 mph 18.4 mph 0.01 in   Overcast
8:53 AM 59.0 °F 55.9 °F 90% 29.67 in 10.0 mi South 9.2 mph 21.9 mph 0.01 in Rain Light Rain
9:53 AM 60.1 °F 55.9 °F 86% 29.66 in 7.0 mi South 10.4 mph 20.7 mph 0.03 in Rain Light Rain
10:06 AM 60.8 °F 57.2 °F 88% 29.66 in 8.0 mi South 10.4 mph 21.9 mph 0.00 in Rain Light Rain
10:53 AM 60.1 °F 57.0 °F 90% 29.65 in 5.0 mi SSE 12.7 mph 24.2 mph 0.04 in Rain Light Rain
11:23 AM 60.8 °F 57.2 °F 88% 29.65 in 2.5 mi SSE 15.0 mph 21.9 mph 0.08 in Rain Rain
11:29 AM 60.8 °F 57.2 °F 88% 29.65 in 3.0 mi South 12.7 mph 21.9 mph 0.10 in Rain Rain
11:53 AM 61.0 °F 57.0 °F 87% 29.65 in 10.0 mi South 10.4 mph 18.4 mph 0.12 in Rain Light Rain
12:53 PM 62.1 °F 57.9 °F 86% 29.61 in 7.0 mi South 12.7 mph 21.9 mph 0.03 in Rain Light Rain
1:53 PM 62.1 °F 57.9 °F 86% 29.57 in 5.0 mi South 12.7 mph 25.3 mph 0.05 in Rain Light Rain
2:53 PM 62.1 °F 57.9 °F 86% 29.54 in 5.0 mi South 15.0 mph 25.3 mph 0.04 in Rain Light Rain
3:41 PM 60.8 °F 57.2 °F 88% 29.53 in 2.0 mi South 13.8 mph 26.5 mph 0.08 in Rain Rain
3:53 PM 61.0 °F 57.9 °F 90% 29.53 in 4.0 mi South 11.5 mph 26.5 mph 0.11 in Rain Light Rain
4:03 PM 60.8 °F 57.2 °F 88% 29.51 in 2.5 mi South 15.0 mph 23.0 mph 0.03 in Rain Rain
4:09 PM 60.8 °F 57.2 °F 88% 29.51 in 3.0 mi South 12.7 mph 25.3 mph 0.04 in Rain Light Rain
4:22 PM 60.8 °F 57.2 °F 88% 29.50 in 4.0 mi South 17.3 mph 28.8 mph 0.05 in Rain Light Rain
4:53 PM 61.0 °F 57.9 °F 90% 29.49 in 3.0 mi South 13.8 mph 25.3 mph 0.12 in Rain Rain
5:14 PM 60.8 °F 57.2 °F 88% 29.49 in 5.0 mi South 13.8 mph 29.9 mph 0.06 in Rain Rain
5:33 PM 60.8 °F 57.2 °F 88% 29.52 in 2.5 mi WSW 10.4 mph 20.7 mph 0.18 in Rain Heavy Rain
5:43 PM 57.2 °F 53.6 °F 88% 29.52 in 1.0 mi WNW 6.9 mph 24.2 mph 0.32 in Rain Heavy Rain
5:53 PM 57.0 °F 51.1 °F 81% 29.53 in 4.0 mi West 6.9 mph - 0.33 in Rain Light Rain
6:53 PM 54.0 °F 48.9 °F 83% 29.54 in 6.0 mi Calm Calm - 0.07 in Rain Rain
7:53 PM 53.1 °F 51.1 °F 93% 29.56 in 6.0 mi SSE 3.5 mph - 0.11 in Rain Rain
8:53 PM 53.1 °F 50.0 °F 89% 29.57 in 10.0 mi South 4.6 mph - 0.07 in Rain Light Rain
9:53 PM 54.0 °F 50.0 °F 86% 29.60 in 10.0 mi SSE 8.1 mph - 0.00 in Rain Light Rain
10:53 PM 52.0 °F 50.0 °F 93% 29.60 in 10.0 mi South 5.8 mph - 0.08 in Rain Light Rain
11:53 PM 53.1 °F 50.0 °F 89% 29.61 in 10.0 mi SE 6.9 mph - 0.00 in Rain Light Rain